Time,TemperatureF,DewpointF,PressureIn,WindDirection,WindDirectionDegrees,WindSpeedMPH,WindSpeedGustMPH,Humidity,HourlyPrecipIn,Conditions,Clouds,dailyrainin,SolarRadiationWatts/m^2,SoftwareType,DateUTC
2013-03-02 00:00:00,42.2,23.4,30.26,SE,130,0.0,0.0,47,0.00,,,0.00,0,WeatherCatV1.14B232,2013-03-02 08:00:00,
2013-03-02 00:05:00,42.1,22.8,30.26,SE,135,2.0,3.0,46,0.00,,,0.00,0,WeatherCatV1.14B232,2013-03-02 08:05:00,
2013-03-02 00:10:00,41.8,22.6,30.26,SE,135,2.0,4.0,46,0.00,,,0.00,0,WeatherCatV1.14B232,2013-03-02 08:10:00,
2013-03-02 00:15:00,41.6,22.9,30.24,SE,135,0.0,1.0,47,0.00,,,0.00,0,WeatherCatV1.14B232,2013-03-02 08:15:00,
2013-03-02 00:20:00,41.8,23.6,30.24,SE,135,0.0,0.0,48,0.00,,,0.00,0,WeatherCatV1.14B232,2013-03-02 08:20:00,
2013-03-02 00:25:00,42.1,22.8,30.24,SE,135,0.0,0.0,46,0.00,,,0.00,0,WeatherCatV1.14B232,2013-03-02 08:25:00,
2013-03-02 00:30:00,42.2,22.4,30.24,SE,135,0.0,1.0,45,0.00,,,0.00,0,WeatherCatV1.14B232,2013-03-02 08:30:00,
2013-03-02 00:35:00,42.3,22.5,30.24,SE,135,0.0,0.0,45,0.00,,,0.00,0,WeatherCatV1.14B232,2013-03-02 08:35:00,
2013-03-02 00:40:00,42.3,22.5,30.24,SSE,149,4.0,5.0,45,0.00,,,0.00,0,WeatherCatV1.14B232,2013-03-02 08:40:00,
2013-03-02 00:45:00,42.2,23.4,30.24,SSE,161,0.0,0.0,47,0.00,,,0.00,0,WeatherCatV1.14B232,2013-03-02 08:45:00,
2013-03-02 00:50:00,41.9,23.2,30.24,SSE,161,0.0,0.0,47,0.00,,,0.00,0,WeatherCatV1.14B232,2013-03-02 08:50:00,
2013-03-02 00:55:00,41.6,22.9,30.24,SSE,162,5.0,5.0,47,0.00,,,0.00,0,WeatherCatV1.14B232,2013-03-02 08:55:00,
2013-03-02 01:00:00,41.5,22.8,30.24,SSE,162,0.0,0.0,47,0.00,,,0.00,0,WeatherCatV1.14B232,2013-03-02 09:00:00,
2013-03-02 01:05:00,41.3,22.6,30.24,SSE,162,0.0,3.0,47,0.00,,,0.00,0,WeatherCatV1.14B232,2013-03-02 09:05:00,
2013-03-02 01:10:00,41.3,23.1,30.24,SSE,162,0.0,0.0,48,0.00,,,0.00,0,WeatherCatV1.14B232,2013-03-02 09:10:00,
2013-03-02 01:15:00,41.3,23.1,30.24,SSE,162,0.0,0.0,48,0.00,,,0.00,0,WeatherCatV1.14B232,2013-03-02 09:15:00,
2013-03-02 01:20:00,41.5,23.8,30.24,SSE,162,0.0,0.0,49,0.00,,,0.00,0,WeatherCatV1.14B232,2013-03-02 09:20:00,
2013-03-02 01:25:00,41.6,23.4,30.24,SSE,162,0.0,0.0,48,0.00,,,0.00,0,WeatherCatV1.14B232,2013-03-02 09:25:00,
2013-03-02 01:30:00,41.8,24.1,30.22,SSE,162,2.0,3.0,49,0.00,,,0.00,0,WeatherCatV1.14B232,2013-03-02 09:30:00,
2013-03-02 01:35:00,41.8,24.1,30.22,SSE,162,0.0,0.0,49,0.00,,,0.00,0,WeatherCatV1.14B232,2013-03-02 09:35:00,
2013-03-02 01:40:00,41.8,24.1,30.22,SSE,162,0.0,0.0,49,0.00,,,0.00,0,WeatherCatV1.14B232,2013-03-02 09:40:00,
2013-03-02 01:45:00,41.6,23.9,30.21,SSE,162,0.0,0.0,49,0.00,,,0.00,0,WeatherCatV1.14B232,2013-03-02 09:45:00,
2013-03-02 01:50:00,41.6,23.9,30.21,SSE,163,1.0,1.0,49,0.00,,,0.00,0,WeatherCatV1.14B232,2013-03-02 09:50:00,
2013-03-02 01:55:00,41.6,23.9,30.21,SSE,163,0.0,0.0,49,0.00,,,0.00,0,WeatherCatV1.14B232,2013-03-02 09:55:00,
2013-03-02 02:00:00,41.6,23.4,30.20,SSE,163,0.0,0.0,48,0.00,,,0.00,0,WeatherCatV1.14B232,2013-03-02 10:00:00,
2013-03-02 02:05:00,41.8,23.6,30.20,SSE,163,0.0,0.0,48,0.00,,,0.00,0,WeatherCatV1.14B232,2013-03-02 10:05:00,
2013-03-02 02:10:00,42.2,22.9,30.20,East,93,0.0,0.0,46,0.00,,,0.00,0,WeatherCatV1.14B232,2013-03-02 10:10:00,
2013-03-02 02:15:00,42.9,23.0,30.20,NE,56,3.0,4.0,45,0.00,,,0.00,0,WeatherCatV1.14B232,2013-03-02 10:15:00,
2013-03-02 02:21:00,43.1,23.2,30.20,NE,54,0.0,0.0,45,0.00,,,0.00,0,WeatherCatV1.14B232,2013-03-02 10:21:00,
2013-03-02 02:26:00,42.9,23.0,30.20,NE,54,0.0,0.0,45,0.00,,,0.00,0,WeatherCatV1.14B232,2013-03-02 10:26:00,
2013-03-02 02:31:00,42.8,22.9,30.19,NE,54,0.0,0.0,45,0.00,,,0.00,0,WeatherCatV1.14B232,2013-03-02 10:31:00,
2013-03-02 02:36:00,42.6,23.3,30.19,NE,54,0.0,0.0,46,0.00,,,0.00,0,WeatherCatV1.14B232,2013-03-02 10:36:00,
2013-03-02 02:41:00,42.5,23.2,30.19,NE,54,0.0,2.0,46,0.00,,,0.00,0,WeatherCatV1.14B232,2013-03-02 10:41:00,
2013-03-02 02:46:00,42.3,23.0,30.20,NE,54,1.0,2.0,46,0.00,,,0.00,0,WeatherCatV1.14B232,2013-03-02 10:46:00,
2013-03-02 02:51:00,42.2,22.9,30.20,NNE,26,1.0,4.0,46,0.00,,,0.00,0,WeatherCatV1.14B232,2013-03-02 10:51:00,
2013-03-02 02:56:00,41.9,23.2,30.20,NNE,26,0.0,0.0,47,0.00,,,0.00,0,WeatherCatV1.14B232,2013-03-02 10:56:00,
2013-03-02 03:01:00,41.8,23.6,30.20,NNE,26,0.0,0.0,48,0.00,,,0.00,0,WeatherCatV1.14B232,2013-03-02 11:01:00,
2013-03-02 03:06:00,41.6,22.9,30.20,NNE,26,2.0,2.0,47,0.00,,,0.00,0,WeatherCatV1.14B232,2013-03-02 11:06:00,
2013-03-02 03:11:00,41.6,22.9,30.20,NNE,25,1.0,3.0,47,0.00,,,0.00,0,WeatherCatV1.14B232,2013-03-02 11:11:00,
2013-03-02 03:16:00,41.6,22.9,30.19,NW,310,2.0,4.0,47,0.00,,,0.00,0,WeatherCatV1.14B232,2013-03-02 11:16:00,
2013-03-02 03:21:00,41.5,23.3,30.19,WNW,303,3.0,3.0,48,0.00,,,0.00,0,WeatherCatV1.14B232,2013-03-02 11:21:00,
2013-03-02 03:26:00,41.2,23.0,30.19,WNW,303,1.0,1.0,48,0.00,,,0.00,0,WeatherCatV1.14B232,2013-03-02 11:26:00,
2013-03-02 03:31:00,41.1,22.4,30.18,West,266,0.0,0.0,47,0.00,,,0.00,0,WeatherCatV1.14B232,2013-03-02 11:31:00,
2013-03-02 03:36:00,40.8,21.6,30.18,West,276,1.0,5.0,46,0.00,,,0.00,0,WeatherCatV1.14B232,2013-03-02 11:36:00,
2013-03-02 03:41:00,40.6,22.5,30.18,SW,219,3.0,3.0,48,0.00,,,0.00,0,WeatherCatV1.14B232,2013-03-02 11:41:00,
2013-03-02 03:46:00,40.3,22.2,30.18,SSW,207,0.0,3.0,48,0.00,,,0.00,0,WeatherCatV1.14B232,2013-03-02 11:46:00,
2013-03-02 03:51:00,40.3,22.2,30.18,WSW,242,0.0,1.0,48,0.00,,,0.00,0,WeatherCatV1.14B232,2013-03-02 11:51:00,
2013-03-02 03:56:00,40.3,21.7,30.18,NW,305,4.0,5.0,47,0.00,,,0.00,0,WeatherCatV1.14B232,2013-03-02 11:56:00,
2013-03-02 04:01:00,40.5,21.4,30.18,West,269,3.0,9.0,46,0.00,,,0.00,0,WeatherCatV1.14B232,2013-03-02 12:01:00,
2013-03-02 04:06:00,40.8,22.1,30.18,WNW,283,5.0,5.0,47,0.00,,,0.00,0,WeatherCatV1.14B232,2013-03-02 12:06:00,
2013-03-02 04:11:00,40.8,22.6,30.18,WNW,293,2.0,4.0,48,0.00,,,0.00,0,WeatherCatV1.14B232,2013-03-02 12:11:00,
2013-03-02 04:16:00,40.8,22.1,30.20,WNW,293,0.0,2.0,47,0.00,,,0.00,0,WeatherCatV1.14B232,2013-03-02 12:16:00,
2013-03-02 04:21:00,40.6,22.0,30.20,NW,326,3.0,4.0,47,0.00,,,0.00,0,WeatherCatV1.14B232,2013-03-02 12:21:00,
2013-03-02 04:26:00,40.6,21.5,30.20,NW,326,0.0,0.0,46,0.00,,,0.00,0,WeatherCatV1.14B232,2013-03-02 12:26:00,
2013-03-02 04:31:00,40.6,20.9,30.19,NW,324,5.0,5.0,45,0.00,,,0.00,0,WeatherCatV1.14B232,2013-03-02 12:31:00,
2013-03-02 04:36:00,40.8,21.1,30.19,NNW,327,0.0,6.0,45,0.00,,,0.00,0,WeatherCatV1.14B232,2013-03-02 12:36:00,
2013-03-02 04:41:00,40.8,20.6,30.19,NW,316,0.0,2.0,44,0.00,,,0.00,0,WeatherCatV1.14B232,2013-03-02 12:41:00,
2013-03-02 04:46:00,41.1,20.3,30.19,NNW,331,0.0,1.0,43,0.00,,,0.00,0,WeatherCatV1.14B232,2013-03-02 12:46:00,
2013-03-02 04:51:00,41.1,19.2,30.19,West,271,1.0,3.0,41,0.00,,,0.00,0,WeatherCatV1.14B232,2013-03-02 12:51:00,
2013-03-02 04:56:00,41.1,20.3,30.19,WNW,288,2.0,5.0,43,0.00,,,0.00,0,WeatherCatV1.14B232,2013-03-02 12:56:00,
2013-03-02 05:01:00,40.8,20.1,30.19,WNW,293,2.0,5.0,43,0.00,,,0.00,0,WeatherCatV1.14B232,2013-03-02 13:01:00,
2013-03-02 05:06:00,40.6,20.9,30.19,WNW,288,0.0,0.0,45,0.00,,,0.00,0,WeatherCatV1.14B232,2013-03-02 13:06:00,
2013-03-02 05:11:00,40.5,20.3,30.19,NW,312,4.0,7.0,44,0.00,,,0.00,0,WeatherCatV1.14B232,2013-03-02 13:11:00,
2013-03-02 05:16:00,40.3,20.1,30.23,NW,310,2.0,6.0,44,0.00,,,0.00,0,WeatherCatV1.14B232,2013-03-02 13:16:00,
2013-03-02 05:21:00,40.5,19.8,30.23,NW,305,3.0,4.0,43,0.00,,,0.00,0,WeatherCatV1.14B232,2013-03-02 13:21:00,
2013-03-02 05:26:00,40.3,20.7,30.23,NW,304,0.0,0.0,45,0.00,,,0.00,0,WeatherCatV1.14B232,2013-03-02 13:26:00,
2013-03-02 05:31:00,40.3,19.6,30.24,NW,313,3.0,3.0,43,0.00,,,0.00,0,WeatherCatV1.14B232,2013-03-02 13:31:00,
2013-03-02 05:36:00,40.6,18.8,30.24,NNW,343,7.0,9.0,41,0.00,,,0.00,0,WeatherCatV1.14B232,2013-03-02 13:36:00,
2013-03-02 05:41:00,40.8,18.9,30.24,NNW,345,4.0,6.0,41,0.00,,,0.00,0,WeatherCatV1.14B232,2013-03-02 13:41:00,
2013-03-02 05:46:00,40.8,18.4,30.22,NNW,346,4.0,5.0,40,0.00,,,0.00,0,WeatherCatV1.14B232,2013-03-02 13:46:00,
2013-03-02 05:51:00,40.8,18.9,30.22,NNW,345,0.0,2.0,41,0.00,,,0.00,0,WeatherCatV1.14B232,2013-03-02 13:51:00,
2013-03-02 05:56:00,40.5,19.2,30.22,SSW,209,0.0,1.0,42,0.00,,,0.00,0,WeatherCatV1.14B232,2013-03-02 13:56:00,
2013-03-02 06:01:00,40.2,19.5,30.24,SSW,208,3.0,3.0,43,0.00,,,0.00,0,WeatherCatV1.14B232,2013-03-02 14:01:00,
2013-03-02 06:06:00,39.9,19.8,30.24,SSW,196,0.0,0.0,44,0.00,,,0.00,0,WeatherCatV1.14B232,2013-03-02 14:06:00,
2013-03-02 06:11:00,39.8,18.6,30.24,SSW,198,0.0,0.0,42,0.00,,,0.00,0,WeatherCatV1.14B232,2013-03-02 14:11:00,
2013-03-02 06:16:00,39.8,18.6,30.24,SSW,198,0.0,2.0,42,0.00,,,0.00,0,WeatherCatV1.14B232,2013-03-02 14:16:00,
2013-03-02 06:21:00,39.8,18.6,30.24,WNW,293,3.0,5.0,42,0.00,,,0.00,0,WeatherCatV1.14B232,2013-03-02 14:21:00,
2013-03-02 06:26:00,39.8,18.6,30.24,WNW,293,0.0,0.0,42,0.00,,,0.00,5,WeatherCatV1.14B232,2013-03-02 14:26:00,
2013-03-02 06:31:00,39.8,18.0,30.24,WNW,293,4.0,4.0,41,0.00,,,0.00,0,WeatherCatV1.14B232,2013-03-02 14:31:00,
2013-03-02 06:36:00,39.9,20.3,30.24,WNW,293,6.0,9.0,45,0.00,,,0.00,0,WeatherCatV1.14B232,2013-03-02 14:36:00,
2013-03-02 06:41:00,40.1,17.7,30.24,NNW,332,3.0,6.0,40,0.00,,,0.00,5,WeatherCatV1.14B232,2013-03-02 14:41:00,
2013-03-02 06:46:00,40.5,16.9,30.24,NW,322,1.0,6.0,38,0.00,,,0.00,7,WeatherCatV1.14B232,2013-03-02 14:46:00,
2013-03-02 06:51:00,40.8,17.2,30.24,West,266,4.0,8.0,38,0.00,,,0.00,11,WeatherCatV1.14B232,2013-03-02 14:51:00,
2013-03-02 06:56:00,40.8,17.2,30.24,WNW,293,4.0,4.0,38,0.00,,,0.00,25,WeatherCatV1.14B232,2013-03-02 14:56:00,
2013-03-02 07:01:00,40.6,17.0,30.23,NW,315,6.0,6.0,38,0.00,,,0.00,30,WeatherCatV1.14B232,2013-03-02 15:01:00,
2013-03-02 07:06:00,40.8,15.9,30.23,NW,320,2.0,12.0,36,0.00,,,0.00,39,WeatherCatV1.14B232,2013-03-02 15:06:00,
2013-03-02 07:11:00,40.9,16.0,30.23,NW,320,1.0,3.0,36,0.00,,,0.00,46,WeatherCatV1.14B232,2013-03-02 15:11:00,
2013-03-02 07:16:00,41.1,16.8,30.24,North,349,0.0,4.0,37,0.00,,,0.00,91,WeatherCatV1.14B232,2013-03-02 15:16:00,
2013-03-02 07:21:00,41.1,16.8,30.24,West,273,0.0,5.0,37,0.00,,,0.00,130,WeatherCatV1.14B232,2013-03-02 15:21:00,
2013-03-02 07:26:00,41.1,16.8,30.24,NW,323,0.0,5.0,37,0.00,,,0.00,142,WeatherCatV1.14B232,2013-03-02 15:26:00,
2013-03-02 07:31:00,41.2,16.9,30.24,NNW,341,0.0,2.0,37,0.00,,,0.00,167,WeatherCatV1.14B232,2013-03-02 15:31:00,
2013-03-02 07:36:00,41.3,17.0,30.24,North,354,4.0,6.0,37,0.00,,,0.00,88,WeatherCatV1.14B232,2013-03-02 15:36:00,
2013-03-02 07:41:00,41.3,16.4,30.24,North,349,5.0,9.0,36,0.00,,,0.00,90,WeatherCatV1.14B232,2013-03-02 15:41:00,
2013-03-02 07:46:00,41.3,16.4,30.24,North,353,5.0,7.0,36,0.00,,,0.00,225,WeatherCatV1.14B232,2013-03-02 15:46:00,
2013-03-02 07:51:00,41.5,16.6,30.24,NNW,346,2.0,5.0,36,0.00,,,0.00,167,WeatherCatV1.14B232,2013-03-02 15:51:00,
2013-03-02 07:56:00,41.6,16.6,30.24,NNW,346,2.0,5.0,36,0.00,,,0.00,232,WeatherCatV1.14B232,2013-03-02 15:56:00,
2013-03-02 08:01:00,41.8,16.8,30.23,NNW,346,1.0,2.0,36,0.00,,,0.00,234,WeatherCatV1.14B232,2013-03-02 16:01:00,
2013-03-02 08:06:00,41.9,16.9,30.23,NNW,346,1.0,7.0,36,0.00,,,0.00,329,WeatherCatV1.14B232,2013-03-02 16:06:00,
2013-03-02 08:11:00,42.1,17.1,30.23,NNW,347,1.0,5.0,36,0.00,,,0.00,193,WeatherCatV1.14B232,2013-03-02 16:11:00,
2013-03-02 08:16:00,42.3,17.3,30.23,NW,320,2.0,9.0,36,0.00,,,0.00,132,WeatherCatV1.14B232,2013-03-02 16:16:00,
2013-03-02 08:21:00,42.3,17.3,30.23,NW,318,4.0,7.0,36,0.00,,,0.00,172,WeatherCatV1.14B232,2013-03-02 16:21:00,
2013-03-02 08:26:00,42.5,16.8,30.23,NW,310,5.0,10.0,35,0.00,,,0.00,188,WeatherCatV1.14B232,2013-03-02 16:26:00,
2013-03-02 08:31:00,42.6,16.9,30.23,WNW,293,11.0,14.0,35,0.00,,,0.00,153,WeatherCatV1.14B232,2013-03-02 16:31:00,
2013-03-02 08:36:00,42.6,16.9,30.23,NNW,339,6.0,10.0,35,0.00,,,0.00,134,WeatherCatV1.14B232,2013-03-02 16:36:00,
2013-03-02 08:41:00,42.8,17.1,30.23,NW,312,9.0,11.0,35,0.00,,,0.00,127,WeatherCatV1.14B232,2013-03-02 16:41:00,
2013-03-02 08:46:00,42.6,16.9,30.23,NNW,343,4.0,11.0,35,0.00,,,0.00,186,WeatherCatV1.14B232,2013-03-02 16:46:00,
2013-03-02 08:51:00,42.5,17.4,30.23,NNW,328,3.0,10.0,36,0.00,,,0.00,188,WeatherCatV1.14B232,2013-03-02 16:51:00,
2013-03-02 08:56:00,42.5,17.4,30.23,NW,314,4.0,10.0,36,0.00,,,0.00,225,WeatherCatV1.14B232,2013-03-02 16:56:00,
2013-03-02 09:01:00,42.5,18.7,30.23,NNW,338,4.0,7.0,38,0.00,,,0.00,172,WeatherCatV1.14B232,2013-03-02 17:01:00,
2013-03-02 09:06:00,42.5,18.7,30.23,NW,322,3.0,7.0,38,0.00,,,0.00,190,WeatherCatV1.14B232,2013-03-02 17:06:00,
2013-03-02 09:11:00,42.6,19.4,30.23,NW,320,1.0,3.0,39,0.00,,,0.00,241,WeatherCatV1.14B232,2013-03-02 17:11:00,
2013-03-02 09:16:00,42.8,19.0,30.22,NW,314,3.0,4.0,38,0.00,,,0.00,243,WeatherCatV1.14B232,2013-03-02 17:16:00,
2013-03-02 09:21:00,42.8,18.4,30.22,West,276,0.0,8.0,37,0.00,,,0.00,302,WeatherCatV1.14B232,2013-03-02 17:21:00,
2013-03-02 09:26:00,43.1,18.6,30.22,West,273,5.0,10.0,37,0.00,,,0.00,290,WeatherCatV1.14B232,2013-03-02 17:26:00,
2013-03-02 09:31:00,43.3,18.2,30.22,WNW,293,6.0,11.0,36,0.00,,,0.00,246,WeatherCatV1.14B232,2013-03-02 17:31:00,
2013-03-02 09:36:00,43.6,18.4,30.22,NW,309,9.0,15.0,36,0.00,,,0.00,246,WeatherCatV1.14B232,2013-03-02 17:36:00,
2013-03-02 09:41:00,43.8,19.2,30.22,NNW,327,5.0,11.0,37,0.00,,,0.00,262,WeatherCatV1.14B232,2013-03-02 17:41:00,
2013-03-02 09:46:00,43.8,19.2,30.22,WNW,283,7.0,13.0,37,0.00,,,0.00,220,WeatherCatV1.14B232,2013-03-02 17:46:00,
2013-03-02 09:51:00,43.9,20.0,30.22,WNW,293,9.0,11.0,38,0.00,,,0.00,209,WeatherCatV1.14B232,2013-03-02 17:51:00,
2013-03-02 09:56:00,43.9,20.0,30.22,West,270,8.0,15.0,38,0.00,,,0.00,367,WeatherCatV1.14B232,2013-03-02 17:56:00,
2013-03-02 10:01:00,44.2,20.2,30.22,WNW,288,9.0,16.0,38,0.00,,,0.00,687,WeatherCatV1.14B232,2013-03-02 18:01:00,
2013-03-02 10:06:00,44.6,20.0,30.22,NW,320,10.0,16.0,37,0.00,,,0.00,654,WeatherCatV1.14B232,2013-03-02 18:06:00,
2013-03-02 10:11:00,45.1,19.8,30.22,NW,305,7.0,12.0,36,0.00,,,0.00,647,WeatherCatV1.14B232,2013-03-02 18:11:00,
2013-03-02 10:16:00,45.8,20.4,30.20,West,273,10.0,12.0,36,0.00,,,0.00,682,WeatherCatV1.14B232,2013-03-02 18:16:00,
2013-03-02 10:21:00,46.4,18.9,30.20,WSW,241,11.0,18.0,33,0.00,,,0.00,708,WeatherCatV1.14B232,2013-03-02 18:21:00,
2013-03-02 10:26:00,46.7,17.7,30.20,NW,320,10.0,15.0,31,0.00,,,0.00,731,WeatherCatV1.14B232,2013-03-02 18:26:00,
2013-03-02 10:31:00,47.0,18.7,30.18,NW,305,17.0,19.0,32,0.00,,,0.00,534,WeatherCatV1.14B232,2013-03-02 18:31:00,
2013-03-02 10:36:00,47.1,18.0,30.18,WNW,288,13.0,13.0,31,0.00,,,0.00,708,WeatherCatV1.14B232,2013-03-02 18:36:00,
2013-03-02 10:41:00,47.4,18.3,30.18,West,263,5.0,11.0,31,0.00,,,0.00,728,WeatherCatV1.14B232,2013-03-02 18:41:00,
2013-03-02 10:46:00,47.9,16.4,30.18,West,269,14.0,21.0,28,0.00,,,0.00,241,WeatherCatV1.14B232,2013-03-02 18:46:00,
2013-03-02 10:51:00,47.9,16.4,30.18,West,270,6.0,15.0,28,0.00,,,0.00,308,WeatherCatV1.14B232,2013-03-02 18:51:00,
2013-03-02 10:56:00,47.9,16.4,30.18,WSW,249,4.0,12.0,28,0.00,,,0.00,279,WeatherCatV1.14B232,2013-03-02 18:56:00,
2013-03-02 11:01:00,47.9,16.4,30.17,West,259,6.0,14.0,28,0.00,,,0.00,264,WeatherCatV1.14B232,2013-03-02 19:01:00,
2013-03-02 11:06:00,47.7,17.0,30.17,WNW,288,16.0,17.0,29,0.00,,,0.00,295,WeatherCatV1.14B232,2013-03-02 19:06:00,
2013-03-02 11:11:00,47.4,16.0,30.17,NW,307,11.0,15.0,28,0.00,,,0.00,410,WeatherCatV1.14B232,2013-03-02 19:11:00,
2013-03-02 11:16:00,47.4,16.8,30.18,WNW,283,4.0,17.0,29,0.00,,,0.00,339,WeatherCatV1.14B232,2013-03-02 19:16:00,
2013-03-02 11:21:00,47.6,16.9,30.18,West,264,13.0,14.0,29,0.00,,,0.00,330,WeatherCatV1.14B232,2013-03-02 19:21:00,
2013-03-02 11:26:00,47.6,16.1,30.18,NW,311,15.0,15.0,28,0.00,,,0.00,260,WeatherCatV1.14B232,2013-03-02 19:26:00,
2013-03-02 11:31:00,47.6,16.1,30.17,WSW,257,6.0,11.0,28,0.00,,,0.00,318,WeatherCatV1.14B232,2013-03-02 19:31:00,
2013-03-02 11:36:00,47.7,15.4,30.17,WNW,283,10.0,20.0,27,0.00,,,0.00,290,WeatherCatV1.14B232,2013-03-02 19:36:00,
2013-03-02 11:41:00,47.7,15.4,30.17,WNW,283,7.0,16.0,27,0.00,,,0.00,269,WeatherCatV1.14B232,2013-03-02 19:41:00,
2013-03-02 11:46:00,47.7,16.2,30.15,West,276,4.0,10.0,28,0.00,,,0.00,274,WeatherCatV1.14B232,2013-03-02 19:46:00,
2013-03-02 11:51:00,47.7,16.2,30.15,West,261,2.0,6.0,28,0.00,,,0.00,279,WeatherCatV1.14B232,2013-03-02 19:51:00,
2013-03-02 11:56:00,47.9,16.4,30.15,West,274,6.0,12.0,28,0.00,,,0.00,292,WeatherCatV1.14B232,2013-03-02 19:56:00,
2013-03-02 12:01:00,48.0,16.5,30.15,West,270,12.0,12.0,28,0.00,,,0.00,287,WeatherCatV1.14B232,2013-03-02 20:01:00,
2013-03-02 12:06:00,48.0,16.5,30.15,West,261,6.0,13.0,28,0.00,,,0.00,288,WeatherCatV1.14B232,2013-03-02 20:06:00,
2013-03-02 12:11:00,48.0,15.6,30.15,West,278,9.0,16.0,27,0.00,,,0.00,295,WeatherCatV1.14B232,2013-03-02 20:11:00,
2013-03-02 12:16:00,48.2,16.6,30.15,West,261,5.0,16.0,28,0.00,,,0.00,473,WeatherCatV1.14B232,2013-03-02 20:16:00,
2013-03-02 12:21:00,48.5,16.9,30.15,WNW,288,11.0,17.0,28,0.00,,,0.00,571,WeatherCatV1.14B232,2013-03-02 20:21:00,
2013-03-02 12:26:00,49.1,16.6,30.15,WNW,302,12.0,17.0,27,0.00,,,0.00,640,WeatherCatV1.14B232,2013-03-02 20:26:00,
2013-03-02 12:31:00,49.4,17.7,30.13,WNW,293,14.0,22.0,28,0.00,,,0.00,301,WeatherCatV1.14B232,2013-03-02 20:31:00,
2013-03-02 12:36:00,49.1,17.4,30.13,West,278,14.0,17.0,28,0.00,,,0.00,524,WeatherCatV1.14B232,2013-03-02 20:36:00,
2013-03-02 12:41:00,49.2,16.7,30.13,WNW,283,10.0,15.0,27,0.00,,,0.00,944,WeatherCatV1.14B232,2013-03-02 20:41:00,
2013-03-02 12:46:00,49.6,17.9,30.13,NW,318,5.0,14.0,28,0.00,,,0.00,471,WeatherCatV1.14B232,2013-03-02 20:46:00,
2013-03-02 12:51:00,49.8,18.0,30.13,WSW,251,7.0,14.0,28,0.00,,,0.00,882,WeatherCatV1.14B232,2013-03-02 20:51:00,
2013-03-02 12:56:00,50.2,18.4,30.13,WNW,283,8.0,19.0,28,0.00,,,0.00,854,WeatherCatV1.14B232,2013-03-02 20:56:00,
2013-03-02 13:01:00,50.5,18.6,30.11,NW,305,14.0,14.0,28,0.00,,,0.00,796,WeatherCatV1.14B232,2013-03-02 21:01:00,
2013-03-02 13:06:00,50.4,18.5,30.11,WNW,283,7.0,14.0,28,0.00,,,0.00,325,WeatherCatV1.14B232,2013-03-02 21:06:00,
2013-03-02 13:11:00,50.1,18.3,30.11,WSW,248,5.0,11.0,28,0.00,,,0.00,267,WeatherCatV1.14B232,2013-03-02 21:11:00,
2013-03-02 13:16:00,49.6,17.9,30.10,WNW,288,6.0,18.0,28,0.00,,,0.00,461,WeatherCatV1.14B232,2013-03-02 21:16:00,
2013-03-02 13:21:00,49.6,17.9,30.10,WSW,249,9.0,15.0,28,0.00,,,0.00,847,WeatherCatV1.14B232,2013-03-02 21:21:00,
2013-03-02 13:26:00,49.8,17.2,30.10,West,270,13.0,17.0,27,0.00,,,0.00,837,WeatherCatV1.14B232,2013-03-02 21:26:00,
2013-03-02 13:31:00,49.8,17.2,30.09,WNW,283,10.0,17.0,27,0.00,,,0.00,294,WeatherCatV1.14B232,2013-03-02 21:31:00,
2013-03-02 13:36:00,49.9,18.1,30.09,WNW,297,9.0,18.0,28,0.00,,,0.00,773,WeatherCatV1.14B232,2013-03-02 21:36:00,
2013-03-02 13:41:00,50.2,19.2,30.09,WSW,251,5.0,20.0,29,0.00,,,0.00,722,WeatherCatV1.14B232,2013-03-02 21:41:00,
2013-03-02 13:46:00,50.5,18.6,30.09,WSW,251,7.0,9.0,28,0.00,,,0.00,703,WeatherCatV1.14B232,2013-03-02 21:46:00,
2013-03-02 13:51:00,50.7,18.8,30.09,WNW,300,6.0,18.0,28,0.00,,,0.00,689,WeatherCatV1.14B232,2013-03-02 21:51:00,
2013-03-02 13:56:00,50.1,19.1,30.09,NW,316,9.0,14.0,29,0.00,,,0.00,679,WeatherCatV1.14B232,2013-03-02 21:56:00,
2013-03-02 14:01:00,50.1,18.3,30.09,WSW,239,7.0,15.0,28,0.00,,,0.00,671,WeatherCatV1.14B232,2013-03-02 22:01:00,
2013-03-02 14:06:00,50.2,18.4,30.09,WSW,254,9.0,10.0,28,0.00,,,0.00,631,WeatherCatV1.14B232,2013-03-02 22:06:00,
2013-03-02 14:11:00,50.7,18.8,30.09,WNW,293,7.0,12.0,28,0.00,,,0.00,592,WeatherCatV1.14B232,2013-03-02 22:11:00,
2013-03-02 14:16:00,51.1,17.4,30.09,WNW,288,12.0,21.0,26,0.00,,,0.00,346,WeatherCatV1.14B232,2013-03-02 22:16:00,
2013-03-02 14:21:00,51.0,17.3,30.09,West,261,4.0,16.0,26,0.00,,,0.00,571,WeatherCatV1.14B232,2013-03-02 22:21:00,
2013-03-02 14:26:00,51.1,16.5,30.09,WSW,247,5.0,16.0,25,0.00,,,0.00,434,WeatherCatV1.14B232,2013-03-02 22:26:00,
2013-03-02 14:31:00,51.1,18.3,30.09,West,278,9.0,9.0,27,0.00,,,0.00,573,WeatherCatV1.14B232,2013-03-02 22:31:00,
2013-03-02 14:36:00,51.0,16.4,30.09,SW,218,5.0,18.0,25,0.00,,,0.00,283,WeatherCatV1.14B232,2013-03-02 22:36:00,
2013-03-02 14:41:00,51.1,17.4,30.09,SW,231,6.0,14.0,26,0.00,,,0.00,244,WeatherCatV1.14B232,2013-03-02 22:41:00,
2013-03-02 14:46:00,50.5,17.8,30.07,WNW,288,12.0,17.0,27,0.00,,,0.00,283,WeatherCatV1.14B232,2013-03-02 22:46:00,
2013-03-02 14:51:00,49.6,17.9,30.07,West,264,4.0,7.0,28,0.00,,,0.00,378,WeatherCatV1.14B232,2013-03-02 22:51:00,
2013-03-02 14:56:00,49.4,18.5,30.07,WNW,297,11.0,13.0,29,0.00,,,0.00,445,WeatherCatV1.14B232,2013-03-02 22:56:00,
2013-03-02 15:01:00,49.1,19.0,30.09,NNW,341,4.0,13.0,30,0.00,,,0.00,206,WeatherCatV1.14B232,2013-03-02 23:01:00,
2013-03-02 15:06:00,48.8,18.8,30.09,NW,307,13.0,13.0,30,0.00,,,0.00,338,WeatherCatV1.14B232,2013-03-02 23:06:00,
2013-03-02 15:11:00,48.5,18.5,30.09,NW,312,12.0,16.0,30,0.00,,,0.00,396,WeatherCatV1.14B232,2013-03-02 23:11:00,
2013-03-02 15:16:00,48.5,20.0,30.09,WSW,250,2.0,15.0,32,0.00,,,0.00,438,WeatherCatV1.14B232,2013-03-02 23:16:00,
2013-03-02 15:21:00,48.8,19.5,30.09,NW,305,11.0,16.0,31,0.00,,,0.00,448,WeatherCatV1.14B232,2013-03-02 23:21:00,
2013-03-02 15:26:00,49.1,19.8,30.09,West,269,9.0,12.0,31,0.00,,,0.00,443,WeatherCatV1.14B232,2013-03-02 23:26:00,
2013-03-02 15:31:00,48.9,19.6,30.08,WNW,283,5.0,12.0,31,0.00,,,0.00,338,WeatherCatV1.14B232,2013-03-02 23:31:00,
2013-03-02 15:36:00,48.8,20.3,30.08,WNW,283,6.0,17.0,32,0.00,,,0.00,260,WeatherCatV1.14B232,2013-03-02 23:36:00,
2013-03-02 15:41:00,48.8,21.0,30.08,WNW,293,9.0,9.0,33,0.00,,,0.00,322,WeatherCatV1.14B232,2013-03-02 23:41:00,
2013-03-02 15:46:00,48.8,21.0,30.07,West,272,4.0,5.0,33,0.00,,,0.00,264,WeatherCatV1.14B232,2013-03-02 23:46:00,
2013-03-02 15:51:00,48.6,20.8,30.07,West,259,6.0,13.0,33,0.00,,,0.00,267,WeatherCatV1.14B232,2013-03-02 23:51:00,
2013-03-02 15:56:00,48.2,21.8,30.07,West,269,7.0,12.0,35,0.00,,,0.00,209,WeatherCatV1.14B232,2013-03-02 23:56:00,
2013-03-02 16:01:00,47.7,21.4,30.08,WNW,283,10.0,14.0,35,0.00,,,0.00,146,WeatherCatV1.14B232,2013-03-03 00:01:00,
2013-03-02 16:06:00,47.3,21.0,30.08,WNW,293,6.0,12.0,35,0.00,,,0.00,153,WeatherCatV1.14B232,2013-03-03 00:06:00,
2013-03-02 16:11:00,46.8,21.9,30.08,NW,307,6.0,15.0,37,0.00,,,0.00,165,WeatherCatV1.14B232,2013-03-03 00:11:00,
2013-03-02 16:16:00,46.4,22.2,30.08,WNW,283,10.0,15.0,38,0.00,,,0.00,169,WeatherCatV1.14B232,2013-03-03 00:16:00,
2013-03-02 16:21:00,46.1,22.5,30.08,WNW,288,5.0,11.0,39,0.00,,,0.00,174,WeatherCatV1.14B232,2013-03-03 00:21:00,
2013-03-02 16:26:00,46.0,22.4,30.08,West,270,8.0,10.0,39,0.00,,,0.00,132,WeatherCatV1.14B232,2013-03-03 00:26:00,
2013-03-02 16:31:00,45.8,22.3,30.09,WNW,283,10.0,14.0,39,0.00,,,0.00,120,WeatherCatV1.14B232,2013-03-03 00:31:00,
2013-03-02 16:36:00,45.5,23.2,30.09,NW,306,10.0,12.0,41,0.00,,,0.00,121,WeatherCatV1.14B232,2013-03-03 00:36:00,
2013-03-02 16:41:00,45.4,23.1,30.09,WNW,293,10.0,13.0,41,0.00,,,0.00,125,WeatherCatV1.14B232,2013-03-03 00:41:00,
2013-03-02 16:46:00,45.2,23.5,30.08,NW,306,13.0,13.0,42,0.00,,,0.00,100,WeatherCatV1.14B232,2013-03-03 00:46:00,
2013-03-02 16:51:00,44.9,23.2,30.08,WNW,303,9.0,12.0,42,0.00,,,0.00,88,WeatherCatV1.14B232,2013-03-03 00:51:00,
2013-03-02 16:56:00,44.8,23.1,30.08,WNW,283,6.0,14.0,42,0.00,,,0.00,90,WeatherCatV1.14B232,2013-03-03 00:56:00,
2013-03-02 17:01:00,44.6,23.5,30.08,WNW,283,4.0,10.0,43,0.00,,,0.00,79,WeatherCatV1.14B232,2013-03-03 01:01:00,
2013-03-02 17:06:00,44.6,24.0,30.08,WNW,283,5.0,6.0,44,0.00,,,0.00,56,WeatherCatV1.14B232,2013-03-03 01:06:00,
2013-03-02 17:11:00,44.3,23.8,30.08,NW,304,5.0,7.0,44,0.00,,,0.00,46,WeatherCatV1.14B232,2013-03-03 01:11:00,
2013-03-02 17:16:00,44.2,23.7,30.10,WNW,288,11.0,11.0,44,0.00,,,0.00,40,WeatherCatV1.14B232,2013-03-03 01:16:00,
2013-03-02 17:21:00,43.9,23.9,30.10,West,278,4.0,7.0,45,0.00,,,0.00,40,WeatherCatV1.14B232,2013-03-03 01:21:00,
2013-03-02 17:26:00,43.8,23.9,30.10,NW,308,4.0,6.0,45,0.00,,,0.00,30,WeatherCatV1.14B232,2013-03-03 01:26:00,
2013-03-02 17:31:00,43.5,24.1,30.09,NW,310,3.0,5.0,46,0.00,,,0.00,18,WeatherCatV1.14B232,2013-03-03 01:31:00,
2013-03-02 17:36:00,43.2,24.3,30.09,WNW,303,3.0,6.0,47,0.00,,,0.00,12,WeatherCatV1.14B232,2013-03-03 01:36:00,
2013-03-02 17:41:00,42.9,24.1,30.09,WNW,303,4.0,7.0,47,0.00,,,0.00,7,WeatherCatV1.14B232,2013-03-03 01:41:00,
2013-03-02 17:46:00,42.8,24.5,30.11,NW,312,1.0,6.0,48,0.00,,,0.00,0,WeatherCatV1.14B232,2013-03-03 01:46:00,
2013-03-02 17:51:00,42.6,24.3,30.11,WNW,302,2.0,9.0,48,0.00,,,0.00,0,WeatherCatV1.14B232,2013-03-03 01:51:00,
2013-03-02 17:56:00,42.5,24.2,30.11,NW,308,3.0,11.0,48,0.00,,,0.00,0,WeatherCatV1.14B232,2013-03-03 01:56:00,
2013-03-02 18:01:00,42.2,23.9,30.11,NW,313,6.0,11.0,48,0.00,,,0.00,0,WeatherCatV1.14B232,2013-03-03 02:01:00,
2013-03-02 18:06:00,42.1,23.8,30.11,WNW,299,4.0,8.0,48,0.00,,,0.00,0,WeatherCatV1.14B232,2013-03-03 02:06:00,
2013-03-02 18:11:00,41.9,24.1,30.11,WNW,293,6.0,10.0,49,0.00,,,0.00,0,WeatherCatV1.14B232,2013-03-03 02:11:00,
2013-03-02 18:16:00,41.8,24.1,30.11,NW,315,4.0,11.0,49,0.00,,,0.00,0,WeatherCatV1.14B232,2013-03-03 02:16:00,
2013-03-02 18:21:00,41.5,23.8,30.11,NW,324,4.0,5.0,49,0.00,,,0.00,0,WeatherCatV1.14B232,2013-03-03 02:21:00,
2013-03-02 18:26:00,41.2,23.5,30.11,NW,307,2.0,4.0,49,0.00,,,0.00,0,WeatherCatV1.14B232,2013-03-03 02:26:00,
2013-03-02 18:31:00,41.2,23.5,30.11,WNW,293,4.0,5.0,49,0.00,,,0.00,0,WeatherCatV1.14B232,2013-03-03 02:31:00,
2013-03-02 18:36:00,41.1,22.9,30.11,WNW,293,1.0,2.0,48,0.00,,,0.00,0,WeatherCatV1.14B232,2013-03-03 02:36:00,
2013-03-02 18:41:00,40.9,23.7,30.11,WNW,303,3.0,5.0,50,0.00,,,0.00,0,WeatherCatV1.14B232,2013-03-03 02:41:00,
2013-03-02 18:46:00,40.8,23.1,30.11,NW,312,2.0,7.0,49,0.00,,,0.00,0,WeatherCatV1.14B232,2013-03-03 02:46:00,
2013-03-02 18:51:00,40.6,23.4,30.11,NW,323,0.0,3.0,50,0.00,,,0.00,0,WeatherCatV1.14B232,2013-03-03 02:51:00,
2013-03-02 18:56:00,40.3,23.2,30.11,NW,311,3.0,4.0,50,0.00,,,0.00,0,WeatherCatV1.14B232,2013-03-03 02:56:00,
2013-03-02 19:01:00,40.3,22.7,30.13,NW,304,2.0,6.0,49,0.00,,,0.00,0,WeatherCatV1.14B232,2013-03-03 03:01:00,
2013-03-02 19:06:00,40.2,22.6,30.13,NW,310,1.0,3.0,49,0.00,,,0.00,0,WeatherCatV1.14B232,2013-03-03 03:06:00,
2013-03-02 19:11:00,40.1,22.5,30.13,NW,322,2.0,4.0,49,0.00,,,0.00,0,WeatherCatV1.14B232,2013-03-03 03:11:00,
2013-03-02 19:16:00,39.6,22.0,30.11,NW,309,2.0,7.0,49,0.00,,,0.00,0,WeatherCatV1.14B232,2013-03-03 03:16:00,
2013-03-02 19:21:00,39.6,22.0,30.11,NW,311,5.0,6.0,49,0.00,,,0.00,0,WeatherCatV1.14B232,2013-03-03 03:21:00,
2013-03-02 19:26:00,39.6,21.5,30.11,NNW,330,2.0,4.0,48,0.00,,,0.00,0,WeatherCatV1.14B232,2013-03-03 03:26:00,
2013-03-02 19:31:00,39.6,21.5,30.11,NNW,339,0.0,5.0,48,0.00,,,0.00,0,WeatherCatV1.14B232,2013-03-03 03:31:00,
2013-03-02 19:36:00,39.5,21.9,30.11,NNE,14,4.0,4.0,49,0.00,,,0.00,0,WeatherCatV1.14B232,2013-03-03 03:36:00,
2013-03-02 19:41:00,39.2,21.2,30.11,NNW,337,0.0,5.0,48,0.00,,,0.00,0,WeatherCatV1.14B232,2013-03-03 03:41:00,
2013-03-02 19:46:00,39.2,21.2,30.11,NNW,339,0.0,0.0,48,0.00,,,0.00,0,WeatherCatV1.14B232,2013-03-03 03:46:00,
2013-03-02 19:51:00,39.2,21.2,30.11,NNW,339,0.0,1.0,48,0.00,,,0.00,0,WeatherCatV1.14B232,2013-03-03 03:51:00,
2013-03-02 19:56:00,39.1,20.6,30.11,NNW,339,0.0,0.0,47,0.00,,,0.00,0,WeatherCatV1.14B232,2013-03-03 03:56:00,
2013-03-02 20:01:00,39.1,20.1,30.11,NNW,339,0.0,0.0,46,0.00,,,0.00,0,WeatherCatV1.14B232,2013-03-03 04:01:00,
2013-03-02 20:06:00,39.1,20.6,30.11,NNW,339,0.0,0.0,47,0.00,,,0.00,0,WeatherCatV1.14B232,2013-03-03 04:06:00,
2013-03-02 20:11:00,38.9,20.4,30.11,NNW,340,3.0,3.0,47,0.00,,,0.00,0,WeatherCatV1.14B232,2013-03-03 04:11:00,
2013-03-02 20:16:00,38.9,20.4,30.09,NNW,341,1.0,3.0,47,0.00,,,0.00,0,WeatherCatV1.14B232,2013-03-03 04:16:00,
2013-03-02 20:21:00,39.1,19.6,30.09,NNW,342,2.0,5.0,45,0.00,,,0.00,0,WeatherCatV1.14B232,2013-03-03 04:21:00,
2013-03-02 20:26:00,39.2,19.7,30.09,NNW,343,1.0,4.0,45,0.00,,,0.00,0,WeatherCatV1.14B232,2013-03-03 04:26:00,
2013-03-02 20:31:00,39.1,20.1,30.09,NNW,345,1.0,5.0,46,0.00,,,0.00,0,WeatherCatV1.14B232,2013-03-03 04:31:00,
2013-03-02 20:36:00,38.9,19.4,30.09,NNW,345,0.0,3.0,45,0.00,,,0.00,0,WeatherCatV1.14B232,2013-03-03 04:36:00,
2013-03-02 20:41:00,39.1,19.6,30.09,NNW,348,3.0,4.0,45,0.00,,,0.00,0,WeatherCatV1.14B232,2013-03-03 04:41:00,
2013-03-02 20:46:00,39.1,19.0,30.09,NNW,348,0.0,7.0,44,0.00,,,0.00,0,WeatherCatV1.14B232,2013-03-03 04:46:00,
2013-03-02 20:51:00,39.1,19.6,30.09,WNW,293,0.0,5.0,45,0.00,,,0.00,0,WeatherCatV1.14B232,2013-03-03 04:51:00,
2013-03-02 20:56:00,39.1,18.0,30.09,WNW,293,2.0,12.0,42,0.00,,,0.00,0,WeatherCatV1.14B232,2013-03-03 04:56:00,
2013-03-02 21:00:00,39.2,17.5,30.09,NW,304,4.0,11.0,41,0.00,,,0.00,0,WeatherCatV1.14B232,2013-03-03 05:00:00,
2013-03-02 21:01:00,39.2,18.1,30.09,WNW,301,6.0,11.0,42,0.00,,,0.00,0,WeatherCatV1.14B232,2013-03-03 05:01:00,
2013-03-02 21:02:00,39.2,18.1,30.09,WNW,293,7.0,10.0,42,0.00,,,0.00,0,WeatherCatV1.14B232,2013-03-03 05:02:00,
2013-03-02 21:06:00,39.2,18.1,30.09,West,259,3.0,12.0,42,0.00,,,0.00,0,WeatherCatV1.14B232,2013-03-03 05:06:00,
2013-03-02 21:11:00,39.2,18.1,30.09,West,277,2.0,5.0,42,0.00,,,0.00,0,WeatherCatV1.14B232,2013-03-03 05:11:00,
2013-03-02 21:16:00,39.1,18.0,30.10,West,272,5.0,9.0,42,0.00,,,0.00,0,WeatherCatV1.14B232,2013-03-03 05:16:00,
2013-03-02 21:21:00,39.1,18.0,30.10,WNW,293,1.0,6.0,42,0.00,,,0.00,0,WeatherCatV1.14B232,2013-03-03 05:21:00,
2013-03-02 21:26:00,38.9,18.3,30.10,NW,315,4.0,10.0,43,0.00,,,0.00,0,WeatherCatV1.14B232,2013-03-03 05:26:00,
2013-03-02 21:31:00,38.8,18.2,30.09,NW,312,5.0,6.0,43,0.00,,,0.00,0,WeatherCatV1.14B232,2013-03-03 05:31:00,
2013-03-02 21:36:00,38.6,18.1,30.09,NW,305,5.0,9.0,43,0.00,,,0.00,0,WeatherCatV1.14B232,2013-03-03 05:36:00,
2013-03-02 21:41:00,38.6,18.6,30.09,WNW,299,5.0,5.0,44,0.00,,,0.00,0,WeatherCatV1.14B232,2013-03-03 05:41:00,
2013-03-02 21:46:00,38.6,19.1,30.09,WNW,283,1.0,4.0,45,0.00,,,0.00,0,WeatherCatV1.14B232,2013-03-03 05:46:00,
2013-03-02 21:51:00,38.5,19.0,30.09,WNW,283,2.0,3.0,45,0.00,,,0.00,0,WeatherCatV1.14B232,2013-03-03 05:51:00,
2013-03-02 21:56:00,38.3,18.8,30.09,NW,310,1.0,6.0,45,0.00,,,0.00,0,WeatherCatV1.14B232,2013-03-03 05:56:00,
2013-03-02 22:01:00,38.2,18.8,30.09,WNW,293,0.0,5.0,45,0.00,,,0.00,0,WeatherCatV1.14B232,2013-03-03 06:01:00,
2013-03-02 22:06:00,38.2,19.3,30.09,WNW,293,3.0,5.0,46,0.00,,,0.00,0,WeatherCatV1.14B232,2013-03-03 06:06:00,
2013-03-02 22:11:00,38.2,19.8,30.09,West,271,9.0,10.0,47,0.00,,,0.00,0,WeatherCatV1.14B232,2013-03-03 06:11:00,
2013-03-02 22:16:00,38.0,20.1,30.05,WNW,288,2.0,9.0,48,0.00,,,0.00,0,WeatherCatV1.14B232,2013-03-03 06:16:00,
2013-03-02 22:21:00,38.0,20.1,30.05,WNW,283,6.0,11.0,48,0.00,,,0.00,0,WeatherCatV1.14B232,2013-03-03 06:21:00,
2013-03-02 22:26:00,38.0,20.6,30.05,WNW,283,4.0,10.0,49,0.00,,,0.00,0,WeatherCatV1.14B232,2013-03-03 06:26:00,
2013-03-02 22:31:00,37.9,20.9,30.04,WNW,297,4.0,9.0,50,0.00,,,0.00,0,WeatherCatV1.14B232,2013-03-03 06:31:00,
2013-03-02 22:36:00,37.8,20.8,30.04,WNW,293,7.0,11.0,50,0.00,,,0.00,0,WeatherCatV1.14B232,2013-03-03 06:36:00,
2013-03-02 22:41:00,37.8,21.3,30.04,NW,304,0.0,5.0,51,0.00,,,0.00,0,WeatherCatV1.14B232,2013-03-03 06:41:00,
2013-03-02 22:46:00,37.6,21.1,30.03,WNW,288,2.0,4.0,51,0.00,,,0.00,0,WeatherCatV1.14B232,2013-03-03 06:46:00,
2013-03-02 22:51:00,37.5,21.5,30.03,West,268,2.0,6.0,52,0.00,,,0.00,0,WeatherCatV1.14B232,2013-03-03 06:51:00,
2013-03-02 22:56:00,37.5,21.5,30.03,WNW,297,4.0,5.0,52,0.00,,,0.00,0,WeatherCatV1.14B232,2013-03-03 06:56:00,
2013-03-02 23:01:00,37.5,21.5,30.02,NW,318,10.0,12.0,52,0.00,,,0.00,0,WeatherCatV1.14B232,2013-03-03 07:01:00,
2013-03-02 23:06:00,37.6,22.0,30.02,WNW,293,7.0,10.0,53,0.00,,,0.00,0,WeatherCatV1.14B232,2013-03-03 07:06:00,
2013-03-02 23:11:00,37.5,21.9,30.02,WNW,283,3.0,11.0,53,0.00,,,0.00,0,WeatherCatV1.14B232,2013-03-03 07:11:00,
2013-03-02 23:16:00,37.5,22.4,30.02,WNW,293,9.0,16.0,54,0.00,,,0.00,0,WeatherCatV1.14B232,2013-03-03 07:16:00,
2013-03-02 23:21:00,37.5,22.8,30.02,SSW,197,2.0,13.0,55,0.00,,,0.00,0,WeatherCatV1.14B232,2013-03-03 07:21:00,
2013-03-02 23:26:00,37.6,24.2,30.02,SW,223,0.0,15.0,58,0.00,,,0.00,0,WeatherCatV1.14B232,2013-03-03 07:26:00,
2013-03-02 23:31:00,37.5,24.5,30.01,West,270,10.0,10.0,59,0.00,,,0.00,0,WeatherCatV1.14B232,2013-03-03 07:31:00,
2013-03-02 23:36:00,37.5,25.3,30.01,WSW,255,0.0,15.0,61,0.00,,,0.00,0,WeatherCatV1.14B232,2013-03-03 07:36:00,
2013-03-02 23:41:00,37.3,25.5,30.01,WNW,301,9.0,11.0,62,0.00,,,0.00,0,WeatherCatV1.14B232,2013-03-03 07:41:00,
2013-03-02 23:46:00,37.2,25.8,30.01,WNW,302,19.0,19.0,63,0.00,,,0.00,0,WeatherCatV1.14B232,2013-03-03 07:46:00,
2013-03-02 23:51:00,37.0,26.0,30.01,West,279,10.0,13.0,64,0.00,,,0.00,0,WeatherCatV1.14B232,2013-03-03 07:51:00,
2013-03-02 23:56:00,36.9,26.2,30.01,West,276,9.0,14.0,65,0.00,,,0.00,0,WeatherCatV1.14B232,2013-03-03 07:56:00,